Regional Weather Roundup
Issued by NWS

Home | Current Version | Previous Version | Graphics & Text | Print | Product List | Glossary Off
Versions: 1 2 3 4 5 6 7 8 9 10 11 12 13 14 15 16 17 18 19 20 21 22 23 24 25 26 27 28 29 30 31 32 33 34 35 36 37 38 39 40 41 42 43 44 45 46 47 48 49 50

000
ASUS43 KMKX 021621
RWRWI

WISCONSIN REGIONAL WEATHER ROUNDUP
NATIONAL WEATHER SERVICE MILWAUKEE/SULLIVAN WI
1100 AM CDT WED SEP 02 2015

NOTE: "FAIR" INDICATES FEW OR NO CLOUDS BELOW 12,000 FEET WITH NO
SIGNIFICANT WEATHER AND/OR OBSTRUCTIONS TO VISIBILITY.

WIZ001-002-006>008-014>016-023>028-021700-
NORTHWEST WISCONSIN

CITY           SKY/WX    TMP DP  RH WIND       PRES   REMARKS
SUPERIOR ARPT  CLOUDY    63  63  99 NE10      29.99S FOG
ASHLAND        CLOUDY    69  69 100 NE9       30.01S
HAYWARD        CLOUDY    68  65  90 NE6       30.00S
SIREN          DRIZZLE   67  65  93 SE9       29.98R
CUMBERLAND     CLOUDY    66  64  94 SE10      29.99R
RICE LAKE      CLOUDY    67  65  91 E6        30.01R
CHETEK         RAIN     N/A N/A N/A E10       30.00S
LADYSMITH      LGT RAIN  68  66  92 E7        30.03S
EAU CLAIRE     LGT RAIN  69  67  93 NE6       29.98R
MENOMONIE      LGT RAIN  68  66  93 NE5       29.98R
NEW RICHMOND   RAIN      65  64  96 E7        29.95F
OSCEOLA        CLOUDY    68  68 100 SE8       29.97S
$$

WIZ003>005-009-010-017-018-021700-
NORTH CENTRAL WISCONSIN

CITY           SKY/WX    TMP DP  RH WIND       PRES   REMARKS
MANITOWISH WTR RAIN      67  67 100 CALM      30.04R
ARBOR VITAE    LGT RAIN  67  65  92 N6        30.03S
WOODRUFF       LGT RAIN  67  65  92 N6        30.03S
RHINELANDER    CLOUDY    70  63  78 CALM      30.03R
EAGLE RIVER    CLOUDY    68  64  88 NE5       30.02R
LAND O LAKES   CLOUDY    67  65  93 N6        30.05R
PHILLIPS       LGT RAIN  66  66  98 E3        30.02S
TOMAHAWK       CLOUDY    70  65  83 CALM      30.04R
MEDFORD        LGT RAIN  71  67  89 NE5       30.02R
MERRILL        PTSUNNY   74  71  88 NE5       30.02R
$$

WIZ029-030-035-036-043>047-021700-
CENTRAL WISCONSIN

CITY           SKY/WX    TMP DP  RH WIND       PRES   REMARKS
WAUSAU         PTSUNNY   79  70  74 NW6       29.98S HX  82
MOSINEE        MOSUNNY   79  73  83 SW5       30.01R HX  82
MARSHFIELD     PTSUNNY   81  68  64 NW7       30.00S HX  84
STEVENS POINT  PTSUNNY   79  69  72 SW3       30.00S HX  82
WAUPACA        PTSUNNY   85  72  66 S6        29.98F HX  90
WAUTOMA        PTSUNNY   85  72  65 SW8       30.00R HX  91
WISC RAPIDS    MOSUNNY   83  69  62 W8        30.01S HX  86
CAMP DOUGLAS   MOSUNNY   81  77  89 W3        29.99S HX  88
$$

WIZ011>013-019>022-031-037>040-048>050-021700-
NORTHEAST WISCONSIN

CITY           SKY/WX    TMP DP  RH WIND       PRES   REMARKS
ANTIGO         CLOUDY    75  70  83 N13       30.02S
SHAWANO        PTSUNNY   84  72  67 W3        29.98S HX  89
OCONTO         MOSUNNY   83  76  80 W7        29.96F HX  92
STURGEON BAY   MOSUNNY   82  73  74 SW5       30.00S HX  88
GREEN BAY      MOSUNNY   84  74  71 W6        29.98S HX  91
MANITOWOC      SUNNY     85  72  65 MISG      29.99S HX  91
APPLETON       PTSUNNY   82  70  65 S5        29.99S HX  86
CLINTONVILLE   PTSUNNY   81  72  74 SW7       29.98S HX  84
OSHKOSH        MOSUNNY   83  72  69 VRB5      29.99F HX  88
$$

WIZ032>034-041-042-053>061-021700-
SOUTHWEST WISCONSIN

CITY           SKY/WX    TMP DP  RH WIND       PRES   REMARKS
LA CROSSE      MOSUNNY   79  69  71 S10       29.96S HX  81
SPARTA         PTSUNNY   81  67  63 SW5       29.98F HX  83
VIROQUA          N/A     77  68  75 SW6       30.01S
BOSCOBEL       CLOUDY    82  69  64 SW8       29.99F HX  85
PRAIRIE DU CHI CLOUDY    77  66  70 S7        29.99S
PLATTEVILLE    CLOUDY    79  72  79 SW13      30.03R HX  82
$$

WIZ056-057-062-063-064-067-068-021700-
SOUTH CENTRAL WISCONSIN

CITY           SKY/WX    TMP DP  RH WIND       PRES   REMARKS
REEDSBURG      SUNNY     83  69  61 S14       29.99S HX  87
BARABOO/DELLS  SUNNY     84  65  52 SW13      30.00S HX  85
LONE ROCK      PTSUNNY   82  69  64 SW7       30.00S HX  85
MINERAL POINT  PTSUNNY   81  70  69 SW8       30.03S HX  84
MADISON        PTSUNNY   83  68  60 SW8       30.00F HX  86
MIDDLETON      MOSUNNY   85  66  52 S13       30.01F HX  87
WATERTOWN      SUNNY     82  74  77 S8        30.01F HX  87
MONROE         PTSUNNY   81  68  65 SW9       30.03F HX  83
JANESVILLE     SUNNY     84  70  61 SW8       30.02F HX  88
$$

WIZ051-052-058>065-066-070>072-021700-
SOUTHEAST WISCONSIN

CITY           SKY/WX    TMP DP  RH WIND       PRES   REMARKS
MILWAUKEE      MOSUNNY   84  70  62 SW6       30.02F HX  88
WAUKESHA       NOT AVBL
MILWAUKEE/TIMM SUNNY     82  64  54 W9        30.02F HX  84
RACINE         SUNNY     85  69  58 VRB6      30.04F HX  89
BURLINGTON     SUNNY     82  68  63 SW3       30.03F HX  84
KENOSHA        SUNNY     84  71  65 SW8       30.03F HX  89
FOND DU LAC    SUNNY     82  72  71 SW8       30.00F HX  87
SHEBOYGAN      SUNNY     85  72  65 VRB5      30.00F HX  91
WEST BEND      SUNNY     82  68  61 SW3       30.01F HX  85
JUNEAU         MOSUNNY   80  71  73 S8        30.02F HX  84
$$

LSZ147-162-021700-
LAKE SUPERIOR

STATION/POSITION TIME  TEMP    WIND        PRES    WAVE
                       AIR SEA DIR/SP/G            HT/PER
                 (UTC) (F)     (DEG/KT/KT) (MB)    (FT/S)
W MID LAKE BUOY  1550   59 56  240/  6/  8 1017.5R   0
DEVILS ISLAND    1600   65      10/ 10/ 11 1016.3R
PORT WING        1502   64      50/  4     1016.3
SAXON HARBOR     1500   65      CALM  /  7 1015.9R
$$

LMZ867-665-643>646-021700-
LAKE MICHIGAN

STATION/POSITION TIME  TEMP    WIND        PRES    WAVE
                       AIR SEA DIR/SP/G            HT/PER
                 (UTC) (F)     (DEG/KT/KT) (MB)    (FT/S)
CHAMBERS ISLAND  1500   75     170/  2/  5 1014.9R
N MID LAKE BUOY  1550   66 66  230/  4/  4 1015.0R   1
NORTHPORT PIER   1500   67     150/  4/  5 1014.9S
SISTER BAY       1504   80        CALM       N/A
ALGOMA LAKESHORE 1514             CALM       N/A
KEWAUNEE LAKESHO 1600   62     160/  4/  5 1014.4S
SHEBOYGAN LAKESH 1600   76     170/ 13/ 14 1015.5F
PORT WASHINGTON  1500   63      70/  2/  4 1016.9
ATWATER BUOY     1600   61     150/  6/  6 1017.6F
MILWAUKEE LAKESH 1610   67     140/  3/  4   N/A
S MID LAKE BUOY  1550   72 70  200/ 10/ 12 1016.6F   1
KENOSHA   LAKESH 1600   73     180/  6/  9 1016.3F
$$

TC  - TEMPERATURE IN CELSIUS
VSB - VISIBILITY IN STATUTE MILES
WCI - WIND CHILL INDEX
HX  - HEAT INDEX




USA.gov is the U.S. government's official web portal to all federal, state and local government web resources and services.